Location: Mountain_View
(35.6670°N, 81.4000°W)
Time: 08:27:12
(UTC-04:00)

Amateur Radio Satellites - All Passes

Search period start: 02 October 2014 07:57
Search period end: 03 October 2014 07:57
Location: Mountain_View, 35.6670°N, 81.4000°W

Satellite Date Start Highest point End Downlink Frequencies (MHz)
Time Altitude Azimuth
Sapphire 02 Oct 08:30:50 08:33:21 13° 103° (ESE) 08:35:52 437.095 MHz 1200 baud AX-25 AFSK
SO-67 02 Oct 08:40:40 08:44:05 66° 283° (WNW) 08:47:30 435.3500 MHz FM
JAS-2 02 Oct 08:46:44 08:51:34 21° 295° (WNW) 08:56:44 435.800 - 435.900 CW/SSB, 435.910 FM
HO-68 02 Oct 08:52:14 08:54:45 12° 90° (E) 08:57:16 435.675 MHz FM
PCSat 02 Oct 08:54:08 08:58:31 26° 107° (ESE) 09:02:56 145.825 MHz
RS-15 02 Oct 09:27:52 09:35:08 19° 28° (NNE) 09:42:31 29.354 - 29.394 USB, Beacon 29.352 USB
UKube-1 02 Oct 10:09:40 10:12:50 19° 95° (E) 10:15:59 145.840 MHz, 145.915 MHz
Sapphire 02 Oct 10:10:45 10:16:07 67° 298° (WNW) 10:21:31 437.095 MHz 1200 baud AX-25 AFSK
HO-68 02 Oct 10:36:02 10:43:16 85° 106° (ESE) 10:50:28 435.675 MHz FM
PCSat 02 Oct 10:36:44 10:41:43 37° 303° (WNW) 10:46:44 145.825 MHz
ZACube-1 02 Oct 10:52:00 10:55:16 20° 94° (E) 10:58:29 437.345 MHz
Oscar 11 02 Oct 11:14:01 11:18:22 88° 283° (WNW) 11:22:40 145.825 FM, Beacon 2401.500 USB
RS-15 02 Oct 11:39:22 11:50:24 61° 56° (NE) 12:01:52 29.354 - 29.394 USB, Beacon 29.352 USB
FUNcube-1 02 Oct 11:41:45 11:46:18 75° 102° (ESE) 11:50:41 145.950 - 145.970 MHz USB
UKube-1 02 Oct 11:45:11 11:49:02 31° 289° (WNW) 11:52:52 145.840 MHz, 145.915 MHz
HO-68 02 Oct 12:25:50 12:30:02 17° 302° (WNW) 12:34:15 435.675 MHz FM
ZACube-1 02 Oct 12:27:40 12:31:42 32° 289° (WNW) 12:35:38 437.345 MHz
JAS-1B 02 Oct 12:47:57 12:49:46 11° 61° (ENE) 12:51:31 435.800 - 435.900 CW/SSB
Oscar 19 02 Oct 13:04:01 13:07:21 18° 65° (ENE) 13:10:42 437.125 CW, 437.150 USB
Uribyol 2 02 Oct 13:21:53 13:23:04 11° 61° (ENE) 13:24:15 436.500 FM
Oscar 16 02 Oct 13:43:29 13:48:23 44° 72° (ENE) 13:53:18 437.025 USB, Beacon 2401.1428
AO-Echo 02 Oct 13:43:31 13:46:41 18° 66° (ENE) 13:49:51 ?
RS-15 02 Oct 13:52:29 14:02:09 35° 254° (WSW) 14:12:13 29.354 - 29.394 USB, Beacon 29.352 USB
AO-27 02 Oct 13:56:56 14:01:00 24° 67° (ENE) 14:05:05 436.795 MHz FM
Saudisat 1A 02 Oct 14:07:35 14:11:56 70° 117° (ESE) 14:16:20 436.775 MHz
Gurwin Techsat 1B 02 Oct 14:29:45 14:33:53 24° 67° (ENE) 14:38:03 435.225 FM
JAS-1B 02 Oct 14:31:53 14:39:41 79° 75° (ENE) 14:46:12 435.800 - 435.900 CW/SSB
Oscar 19 02 Oct 14:41:13 14:46:15 51° 260° (W) 14:51:18 437.125 CW, 437.150 USB
AO-7 02 Oct 14:51:51 14:55:46 14° 51° (NE) 14:59:41 29.400 - 29.500 MHz
ITAMSAT 1 02 Oct 14:56:06 15:01:16 90° 257° (WSW) 15:06:30 435.822 SSB
Uribyol 2 02 Oct 14:56:35 15:01:46 84° 257° (WSW) 15:07:00 436.500 FM
TMSAT-1 02 Oct 14:56:53 15:01:29 31° 69° (ENE) 15:06:06 436.925 FM
MaSat-1 02 Oct 15:06:27 15:08:52 20° 57° (ENE) 15:11:04 437.345 MHz
AO-Echo 02 Oct 15:20:46 15:25:08 39° 262° (W) 15:29:33 ?
Oscar 16 02 Oct 15:24:16 15:27:53 19° 266° (W) 15:31:31 437.025 USB, Beacon 2401.1428
AO-27 02 Oct 15:35:34 15:40:17 36° 262° (W) 15:45:02 436.795 MHz FM
Saudisat 1A 02 Oct 15:49:58 15:51:59 13° 314° (NW) 15:54:00 436.775 MHz
Gurwin Techsat 1B 02 Oct 16:08:43 16:13:36 37° 262° (W) 16:18:31 435.225 FM
KITSAT 1 02 Oct 16:22:06 16:29:01 32° 106° (ESE) 16:35:56 435.175 FM
JAS-1B 02 Oct 16:26:28 16:30:31 15° 266° (W) 16:34:17 435.800 - 435.900 CW/SSB
TMSAT-1 02 Oct 16:36:52 16:41:20 28° 264° (W) 16:45:50 436.925 FM
AO-7 02 Oct 16:38:54 16:47:08 73° 70° (ENE) 16:55:23 29.400 - 29.500 MHz
Uosat F 02 Oct 16:42:50 16:47:41 53° 73° (ENE) 16:52:33 435.120 FM
MaSat-1 02 Oct 16:43:43 16:44:56 12° 259° (WSW) 16:46:06 437.345 MHz
Oscar 10/S400 02 Oct 17:00:47 17:19:00 58° 159° (SSE) 17:56:58 145.825 - 145.975 CW/USB, Beacon 145.810 USB
JAS-2 02 Oct 17:12:51 17:16:02 17° 63° (ENE) 17:19:20 435.800 - 435.900 CW/SSB, 435.910 FM
PCSat 02 Oct 17:45:44 17:48:21 13° 47° (NE) 17:50:57 145.825 MHz
Hamsat 02 Oct 18:06:46 18:10:49 40° 73° (ENE) 18:14:51 145.90 MHz
KITSAT 1 02 Oct 18:16:14 18:24:02 51° 304° (WNW) 18:31:53 435.175 FM
Uosat F 02 Oct 18:24:01 18:26:44 15° 267° (W) 18:29:28 435.120 FM
AO-7 02 Oct 18:34:43 18:40:30 21° 266° (W) 18:46:20 29.400 - 29.500 MHz
OPAL 02 Oct 18:37:58 18:43:03 78° 287° (WNW) 18:48:02 ?
JAS-2 02 Oct 18:55:39 19:00:39 50° 261° (W) 19:05:52 435.800 - 435.900 CW/SSB, 435.910 FM
Sapphire 02 Oct 19:01:42 19:07:00 51° 60° (ENE) 19:12:16 437.095 MHz 1200 baud AX-25 AFSK
PANSAT 02 Oct 19:09:35 19:12:07 17° 164° (SSE) 19:14:38 not established
SO-67 02 Oct 19:11:04 19:13:48 23° 72° (ENE) 19:16:33 435.3500 MHz FM
SO-50 02 Oct 19:24:19 19:28:46 81° 118° (ESE) 19:33:21 436.795 FM
PCSat 02 Oct 19:27:01 19:32:29 87° 245° (WSW) 19:37:53 145.825 MHz
STRAND 1 02 Oct 19:42:21 19:47:06 36° 98° (E) 19:51:48 ?
Hamsat 02 Oct 19:44:29 19:46:53 15° 267° (W) 19:49:18 145.90 MHz
KITSAT 1 02 Oct 20:18:37 20:21:35 12° 327° (NNW) 20:24:33 435.175 FM
SO-67 02 Oct 20:44:39 20:46:46 15° 266° (W) 20:48:53 435.3500 MHz FM
Sapphire 02 Oct 20:46:20 20:49:57 18° 255° (WSW) 20:53:34 437.095 MHz 1200 baud AX-25 AFSK
PANSAT 02 Oct 20:48:28 20:51:47 27° 177° (S) 20:55:05 not established
HO-68 02 Oct 21:01:16 21:08:01 48° 68° (ENE) 21:14:48 435.675 MHz FM
UKube-1 02 Oct 21:03:54 21:05:44 13° 65° (ENE) 21:07:34 145.840 MHz, 145.915 MHz
SO-50 02 Oct 21:08:10 21:09:56 12° 316° (NW) 21:11:42 436.795 FM
STRAND 1 02 Oct 21:22:01 21:26:02 24° 293° (WNW) 21:30:04 ?
UOSAT-12 02 Oct 21:22:28 21:27:03 75° 300° (WNW) 21:31:46 437.025 FM, 437.400 FM
ISS 02 Oct 21:26:15 21:29:25 43° 134° (SE) 21:32:35 145.800 FM
ZACube-1 02 Oct 21:47:05 21:48:58 12° 65° (ENE) 21:50:52 437.345 MHz
Oscar 11 02 Oct 22:05:59 22:10:11 49° 74° (ENE) 22:14:23 145.825 FM, Beacon 2401.500 USB
PANSAT 02 Oct 22:28:23 22:31:30 23° 189° (S) 22:34:36 not established
FUNcube-1 02 Oct 22:34:57 22:39:13 42° 73° (ENE) 22:43:33 145.950 - 145.970 MHz USB
UKube-1 02 Oct 22:37:14 22:41:27 51° 260° (W) 22:45:41 145.840 MHz, 145.915 MHz
Saudisat 1A 02 Oct 22:37:28 22:41:08 25° 52° (NE) 22:44:46 436.775 MHz
HO-68 02 Oct 22:49:54 22:55:51 29° 264° (W) 23:01:52 435.675 MHz FM
ISS 02 Oct 23:03:45 23:06:14 19° 330° (NNW) 23:08:45 145.800 FM
ZACube-1 02 Oct 23:20:21 23:24:48 58° 260° (W) 23:29:22 437.345 MHz
Oscar 11 02 Oct 23:44:50 23:46:35 12° 268° (W) 23:48:21 145.825 FM, Beacon 2401.500 USB
PANSAT 03 Oct 00:10:05 00:11:04 11° 201° (SSW) 00:12:03 not established
FUNcube-1 03 Oct 00:12:59 00:15:45 16° 267° (W) 00:18:33 145.950 - 145.970 MHz USB
Saudisat 1A 03 Oct 00:16:49 00:20:40 30° 247° (WSW) 00:24:30 436.775 MHz
KITSAT 1 03 Oct 00:19:59 00:22:37 12° 32° (NNE) 00:25:15 435.175 FM
Oscar 16 03 Oct 01:59:05 02:02:45 20° 94° (E) 02:06:23 437.025 USB, Beacon 2401.1428
RS-15 03 Oct 01:59:14 02:09:47 52° 110° (ESE) 02:20:07 29.354 - 29.394 USB, Beacon 29.352 USB
KITSAT 1 03 Oct 02:12:27 02:20:15 49° 56° (NE) 02:27:58 435.175 FM
JAS-1B 03 Oct 02:20:25 02:24:41 20° 96° (E) 02:29:14 435.800 - 435.900 CW/SSB
Gurwin Techsat 1B 03 Oct 02:50:53 02:52:19 11° 91° (E) 02:53:44 435.225 FM
Oscar 19 03 Oct 02:55:41 03:00:50 73° 102° (ESE) 03:05:55 437.125 CW, 437.150 USB
ITAMSAT 1 03 Oct 03:12:11 03:17:08 41° 99° (E) 03:22:02 435.822 SSB
Uribyol 2 03 Oct 03:12:30 03:17:30 44° 99° (E) 03:22:28 436.500 FM
TMSAT-1 03 Oct 03:16:43 03:19:48 16° 92° (E) 03:22:52 436.925 FM
AO-Echo 03 Oct 03:29:55 03:35:01 81° 103° (ESE) 03:40:15 ?
Oscar 16 03 Oct 03:37:24 03:42:14 42° 289° (WNW) 03:47:01 437.025 USB, Beacon 2401.1428
AO-27 03 Oct 03:51:00 03:56:15 80° 285° (WNW) 04:01:28 436.795 MHz FM
ISS 03 Oct 03:57:42 04:00:09 19° 30° (NNE) 04:02:34 145.800 FM
SO-50 03 Oct 03:58:47 04:03:11 34° 54° (NE) 04:07:37 436.795 FM
KITSAT 1 03 Oct 04:08:19 04:15:19 34° 253° (WSW) 04:22:18 435.175 FM
JAS-1B 03 Oct 04:10:02 04:15:30 46° 288° (WNW) 04:21:31 435.800 - 435.900 CW/SSB
RS-15 03 Oct 04:11:56 04:22:13 43° 311° (NW) 04:32:29 29.354 - 29.394 USB, Beacon 29.352 USB
OPAL 03 Oct 04:13:41 04:16:40 16° 62° (ENE) 04:19:39 ?
Gurwin Techsat 1B 03 Oct 04:27:26 04:32:45 74° 285° (WNW) 04:38:02 435.225 FM
Oscar 19 03 Oct 04:37:34 04:39:30 12° 298° (WNW) 04:41:25 437.125 CW, 437.150 USB
AO-7 03 Oct 04:44:37 04:51:31 29° 97° (E) 04:58:23 29.400 - 29.500 MHz
MaSat-1 03 Oct 04:45:49 04:49:30 22° 105° (ESE) 04:53:06 437.345 MHz
ITAMSAT 1 03 Oct 04:52:25 04:56:18 22° 294° (WNW) 05:00:10 435.822 SSB
Uribyol 2 03 Oct 04:52:53 04:56:36 20° 294° (WNW) 05:00:19 436.500 FM
Uosat F 03 Oct 04:54:19 04:58:04 21° 95° (E) 05:01:48 435.120 FM
TMSAT-1 03 Oct 04:54:50 05:00:00 55° 287° (WNW) 05:05:10 436.925 FM
AO-Echo 03 Oct 05:11:49 05:13:07 11° 297° (WNW) 05:14:25 ?
ISS 03 Oct 05:33:48 05:37:00 46° 226° (SW) 05:40:11 145.800 FM
SO-50 03 Oct 05:39:38 05:43:35 25° 249° (WSW) 05:47:33 436.795 FM
OPAL 03 Oct 05:49:51 05:54:59 61° 257° (WSW) 06:00:10 ?
UOSAT-12 03 Oct 05:55:02 05:59:30 41° 55° (NE) 06:03:53 437.025 FM, 437.400 FM
JAS-2 03 Oct 06:06:09 06:11:59 27° 96° (E) 06:18:12 435.800 - 435.900 CW/SSB, 435.910 FM
MaSat-1 03 Oct 06:21:15 06:25:42 36° 298° (WNW) 06:29:58 437.345 MHz
Uosat F 03 Oct 06:32:17 06:36:55 38° 289° (WNW) 06:41:34 435.120 FM
RS-15 03 Oct 06:33:14 06:38:42 15° 342° (NNW) 06:44:11 29.354 - 29.394 USB, Beacon 29.352 USB
AO-7 03 Oct 06:36:33 06:44:34 56° 293° (WNW) 06:52:36 29.400 - 29.500 MHz
STRAND 1 03 Oct 06:55:31 07:00:12 39° 71° (ENE) 07:04:55 ?
Hamsat 03 Oct 07:30:58 07:35:08 64° 284° (WNW) 07:39:14 145.90 MHz
UOSAT-12 03 Oct 07:36:02 07:39:19 19° 251° (WSW) 07:42:32 437.025 FM, 437.400 FM
